Probability
0 0 0 0 0 0 0 0 0 0 0 0 0 0 1 4 7 9 10 12 14 16 16 15 15 16 18 19 19 17 15 13 8 5 4 3 3 3 3 4 4 4 2 0
0 0 0 0 0 0 0 0 0 0 0 0 0 0 1 3 5 7 7 10 15 18 18 18 18 18 19 20 21 19 16 12 9 6 4 4 4 3 3 4 5 4 2 1
0 0 0 0 0 0 0 0 0 0 0 0 0 0 0 1 3 5 5 8 14 19 20 21 21 21 21 23 23 21 17 13 10 8 7 6 6 5 4 6 6 5 3 2
0 0 0 0 0 0 0 0 0 0 0 0 0 0 0 1 3 4 6 9 13 18 20 20 22 22 22 24 25 21 15 12 10 9 9 9 8 6 5 7 8 6 5 6
0 0 0 0 0 0 0 0 0 0 0 0 0 0 0 1 3 5 8 10 13 17 19 20 22 23 22 24 25 20 14 9 9 10 10 9 8 6 5 6 8 7 6 6
0 0 0 0 0 0 0 0 0 0 0 0 0 0 0 0 2 6 10 12 14 16 18 18 21 21 21 24 24 21 15 10 9 9 9 8 7 5 4 5 6 5 3 2
0 0 0 0 0 0 0 0 0 0 0 0 0 0 0 0 1 6 12 14 14 15 16 16 18 19 20 23 25 23 17 12 10 8 7 7 7 5 4 5 5 2 0 0
0 0 0 0 0 0 0 0 0 0 0 0 0 0 0 1 3 7 11 13 13 12 12 14 16 15 17 21 25 25 20 14 11 9 8 9 9 8 6 5 4 3 1 1
0 0 0 0 0 0 0 0 0 0 0 0 0 0 1 3 6 9 11 12 11 9 10 13 14 14 15 19 25 28 25 18 12 10 10 11 11 11 9 6 5 4 3 2
0 0 0 0 0 0 0 0 0 0 0 0 0 0 1 3 7 10 12 12 10 10 14 16 14 13 14 17 24 28 27 21 14 11 10 11 11 11 10 7 5 3 2 2
0 0 0 0 0 0 0 0 0 0 0 0 0 0 1 4 7 10 11 11 11 15 22 21 16 14 15 17 21 24 23 19 14 12 11 10 10 9 9 7 4 1 1 1
0 0 0 0 0 0 0 0 0 0 0 0 0 0 1 5 8 10 10 10 12 17 24 25 20 17 18 19 19 18 17 16 15 14 13 11 10 8 7 5 2 0 0 0
0 0 0 0 0 0 0 0 0 0 0 0 0 1 2 6 9 10 11 13 15 17 22 25 25 22 20 19 18 16 14 14 14 15 15 13 10 8 7 5 3 1 1 1
0 0 0 0 0 0 0 0 0 0 1 1 1 2 4 5 8 11 13 17 19 19 21 23 24 22 18 15 14 13 12 12 13 15 15 13 10 9 8 7 5 5 5 5
0 0 0 0 0 0 0 0 0 1 2 2 2 3 4 5 8 11 14 18 21 21 21 21 20 18 16 13 12 13 12 12 13 14 14 11 10 10 10 9 9 10 10 10
0 0 0 0 0 0 0 0 0 1 2 3 2 2 4 7 9 11 13 15 18 20 20 19 17 15 14 14 15 16 16 16 16 16 15 12 10 11 11 11 11 12 13 12
0 0 0 0 0 0 0 0 1 1 2 3 3 3 6 9 12 13 12 13 15 17 18 17 14 12 13 15 16 16 17 20 20 18 16 14 12 12 11 10 11 12 12 12
0 0 0 0 1 1 1 1 2 3 3 3 4 6 9 12 15 16 15 14 15 15 15 15 12 10 11 13 14 13 15 18 19 17 16 13 12 12 11 10 9 10 11 12
0 0 0 0 1 2 2 2 3 4 5 6 6 9 12 14 17 17 15 14 16 15 14 14 13 10 11 12 13 14 13 14 15 14 14 12 10 10 11 10 9 9 10 11
0 0 0 0 1 1 1 2 2 4 6 8 10 12 14 14 14 13 12 14 16 17 15 15 14 14 14 14 16 16 14 11 11 13 13 12 11 10 10 10 11 11 11 11
0 0 0 0 0 0 2 2 1 2 5 8 12 13 14 14 13 12 14 18 20 19 18 17 18 19 20 19 18 18 15 11 10 11 12 12 12 12 13 13 14 14 13 12
0 0 0 0 0 0 2 3 3 4 7 9 11 12 13 15 16 18 21 23 23 20 19 20 22 23 23 22 20 17 14 11 11 11 10 10 11 13 14 14 14 13 12 10
1 0 1 1 2 3 4 4 6 10 12 11 11 11 14 18 21 23 24 24 23 19 17 20 23 23 23 22 19 16 14 13 13 13 10 8 9 11 12 12 11 10 8 7
3 2 3 4 5 6 8 8 10 13 15 14 13 14 18 21 24 25 23 21 19 17 16 19 21 21 20 18 16 14 13 14 16 14 10 7 7 8 9 8 8 7 6 5
4 4 3 3 4 6 8 11 13 15 18 18 19 22 23 24 24 24 21 19 17 16 17 17 18 18 17 16 16 14 12 12 13 12 9 8 7 7 7 6 6 5 5 4
3 3 2 1 1 3 7 11 14 17 20 21 24 27 27 24 23 23 21 19 17 16 16 16 15 15 15 16 16 14 11 10 10 9 9 9 9 8 7 6 5 4 4 2
Wind_Speed
1 2 4 7 7 7 5 4 5 7 4 1 2 4 5 6 7 8 8 10 10 10 9 10 10 11 10 8 8 8 7 6 5 4 3 3 2 2 2 2 3 3 3 3
3 5 10 7 6 6 7 6 6 5 4 3 2 3 4 6 10 10 11 11 11 9 9 10 10 10 10 10 9 8 8 7 5 4 3 3 3 2 2 2 2 3 3 3
6 9 6 6 6 5 6 7 7 6 2 1 2 3 4 4 4 6 8 9 11 13 13 12 11 10 10 11 10 9 8 7 6 5 3 3 2 1 1 1 1 2 3 3
6 7 5 5 5 4 6 7 6 7 3 2 3 2 6 4 3 6 7 9 11 11 11 11 11 11 11 11 10 8 8 7 6 6 5 5 4 3 3 2 2 2 2 3
6 4 4 6 7 5 7 6 3 4 3 1 1 2 6 2 4 6 7 9 10 11 13 13 13 12 11 10 10 8 7 7 6 6 6 6 4 3 2 2 3 2 1 2
7 6 5 6 7 5 3 2 3 3 4 1 4 3 6 4 7 6 7 8 9 9 10 11 10 9 8 8 8 8 7 6 6 7 6 6 6 5 4 3 3 2 1 1
5 7 5 3 3 4 2 5 4 5 4 4 3 2 7 7 5 7 9 8 8 8 8 9 9 9 10 10 9 8 8 7 6 6 6 6 6 6 5 5 4 3 2 1
3 6 5 3 5 4 2 7 7 4 4 4 3 3 6 5 3 2 5 7 8 7 7 9 11 11 9 10 10 9 9 8 7 7 6 5 6 4 3 4 4 4 3 3
6 7 6 5 4 6 3 2 7 7 2 0 3 4 5 3 2 4 4 6 7 7 7 8 9 9 9 9 10 10 9 8 8 7 6 5 5 5 4 4 4 3 3 3
7 4 6 4 1 0 6 5 5 5 3 2 4 3 4 3 2 2 4 7 7 7 7 8 8 9 9 10 9 9 9 9 8 7 7 6 5 5 5 4 4 3 3 2
6 4 6 3 2 4 1 2 4 4 5 6 3 6 6 8 6 5 5 7 9 9 8 8 7 8 8 8 8 8 8 7 7 7 6 6 5 5 4 4 4 4 3 3
6 6 4 7 6 5 6 6 7 5 4 5 4 7 5 4 5 5 5 4 6 8 7 7 7 7 6 7 7 7 7 8 7 7 6 6 5 5 5 4 4 4 4 3
5 6 1 7 7 3 1 3 5 6 4 4 4 7 3 1 3 5 6 6 6 7 7 6 6 6 6 7 6 7 7 7 7 6 6 5 5 5 5 5 4 4 4 3
6 6 8 9 8 4 2 2 3 6 4 4 6 5 3 3 4 4 6 7 7 7 7 7 6 6 7 7 6 6 6 6 7 6 6 6 6 6 6 5 4 4 4 4
4 4 4 5 5 2 2 3 3 4 7 7 7 7 8 7 7 6 6 7 7 6 6 7 8 7 7 7 6 6 5 5 6 6 6 6 5 4 4 4 4 4 4 5
3 3 2 1 1 1 1 2 3 3 3 4 4 5 6 4 4 4 5 7 7 7 7 7 7 7 7 7 6 6 5 5 6 6 6 5 5 4 5 4 4 4 3 3
1 3 3 2 2 2 3 4 3 2 3 6 6 7 5 6 7 7 6 6 6 6 5 6 7 7 6 6 6 6 5 5 6 6 5 5 6 5 5 5 4 4 4 3
3 2 3 3 2 3 8 4 3 3 0 1 3 5 8 8 8 5 5 6 6 5 4 5 6 6 6 5 5 5 5 5 5 5 5 5 6 5 5 5 5 4 4 4
5 6 3 4 3 3 6 3 2 3 0 1 4 6 6 6 5 1 2 5 6 6 5 4 4 5 5 5 5 5 5 4 4 4 4 5 5 5 5 5 5 4 4 4
2 5 5 4 4 5 7 5 2 5 0 3 3 6 6 6 4 3 3 4 5 4 4 3 3 4 5 5 6 6 5 4 4 4 4 4 5 5 6 6 5 4 3 4
3 3 3 4 3 5 5 4 2 4 6 3 4 5 5 4 6 5 4 4 4 4 4 4 4 4 4 4 6 6 5 5 5 4 3 3 4 4 5 4 3 3 3 3
2 2 2 3 3 6 5 2 3 5 3 3 4 5 6 4 4 4 5 6 5 5 4 5 4 3 2 3 5 5 5 4 4 3 3 3 3 3 3 3 3 3 3 3
2 5 5 5 6 5 1 2 2 4 4 2 3 4 6 5 5 5 5 6 5 5 4 4 5 3 1 1 4 5 4 4 4 4 3 3 3 2 2 3 3 2 2 2
4 1 3 1 1 0 2 3 4 4 4 3 3 6 6 5 5 6 6 5 4 3 3 3 4 3 1 0 2 2 2 3 4 3 3 3 3 2 1 2 2 2 2 2
3 2 2 1 1 3 3 3 4 5 6 6 5 4 5 6 6 5 5 5 4 3 2 3 3 2 2 1 1 1 2 3 3 3 3 2 2 3 2 2 2 3 3 4
2 1 2 3 4 2 2 1 3 5 4 5 5 4 2 4 5 5 4 4 4 4 3 3 3 2 2 2 1 1 2 3 3 3 3 3 3 2 2 2 0 1 1 2
Wind_Direction
266 101 230 231 208 207 220 231 266 273 257 158 232 232 203 184 164 172 175 173 171 175 168 160 158 155 150 149 149 153 153 158 150 142 141 139 147 146 148 159 155 153 154 142
352 259 233 237 244 222 221 238 252 269 255 158 194 250 233 184 181 182 178 178 172 166 162 162 160 159 159 162 162 159 159 162 163 161 157 153 154 162 164 159 153 156 152 150
218 248 248 248 246 232 227 215 222 225 280 58 119 313 268 239 194 187 181 175 170 172 171 168 166 169 167 170 170 168 168 164 166 160 138 121 94 71 88 132 160 172 155 151
245 252 256 256 247 221 252 243 218 198 175 237 152 219 272 231 212 200 189 177 178 175 170 170 170 173 177 176 170 163 168 168 169 160 154 155 159 173 195 180 177 173 162 159
253 248 248 257 252 223 230 247 214 195 163 85 341 149 271 246 219 217 192 185 183 174 172 176 178 178 176 172 168 166 164 170 169 163 163 163 169 179 176 161 162 172 183 178
250 259 230 235 257 234 217 22 10 43 73 34 252 171 264 241 217 208 194 184 179 174 172 176 176 170 170 170 166 165 165 174 172 167 169 170 171 168 164 172 175 176 176 196
294 286 268 242 289 306 60 82 26 1 11 257 262 173 246 250 232 195 182 182 178 166 161 163 165 171 176 174 170 170 170 178 176 172 174 176 175 173 181 185 183 174 178 194
225 277 260 225 191 212 220 138 156 193 222 276 328 234 260 279 263 153 159 162 159 169 169 167 169 173 177 178 173 173 177 181 179 179 180 177 176 176 183 186 179 180 185 193
191 246 264 244 209 166 183 187 171 141 161 230 277 285 316 341 69 104 126 137 156 169 168 167 165 166 174 181 182 178 175 178 182 183 179 179 179 174 177 179 175 178 182 190
173 229 278 271 26 291 164 160 96 112 148 228 285 257 229 249 210 152 148 159 161 157 153 155 159 171 185 181 180 176 174 178 180 180 183 183 180 178 177 171 175 178 186 192
167 179 281 321 194 211 179 135 126 133 154 158 223 266 227 200 194 183 188 176 165 160 159 156 160 169 178 174 175 175 174 175 180 181 180 179 178 177 172 172 179 180 179 183
176 148 239 261 251 207 176 178 154 159 214 167 166 256 264 192 180 168 181 176 167 160 159 154 153 149 159 168 172 174 174 179 184 181 176 178 174 169 174 179 182 176 176 186
151 129 148 318 322 324 175 187 168 147 133 159 171 253 276 173 148 152 162 166 163 156 151 150 149 156 166 168 165 170 176 180 176 170 169 171 175 178 186 189 187 183 187 192
133 132 167 201 221 219 240 256 173 132 150 197 211 217 255 223 173 162 157 158 153 155 159 160 163 171 174 171 167 172 175 173 168 165 169 179 188 191 191 190 186 188 189 193
98 152 191 210 211 182 205 226 193 168 177 179 209 192 216 205 185 170 161 153 152 162 169 170 171 176 171 165 166 169 172 172 166 163 171 188 190 185 181 184 189 190 191 194
56 146 142 288 258 113 272 240 216 210 180 168 158 206 217 176 145 146 159 161 164 171 176 176 170 165 167 167 165 164 168 171 163 168 181 183 178 180 182 188 190 189 196 201
17 116 126 233 278 48 279 238 202 217 211 169 189 213 175 143 150 164 169 170 169 165 169 167 167 170 171 169 165 167 170 162 161 168 173 178 179 181 182 186 187 194 202 205
160 121 133 148 84 213 245 246 170 156 170 183 170 166 161 161 161 161 157 154 151 149 162 178 175 173 172 167 163 158 150 154 164 172 180 184 183 186 183 182 190 201 200 200
161 146 126 124 150 255 287 289 181 153 320 337 142 147 157 144 101 54 183 153 149 146 161 182 173 163 160 163 161 148 148 151 161 180 191 195 189 186 184 189 199 202 199 202
59 116 122 130 147 214 247 270 221 113 316 282 155 155 162 128 125 225 197 151 134 130 134 143 144 134 143 159 150 144 157 162 182 196 202 199 188 187 192 197 197 195 192 202
17 41 125 155 181 244 260 282 82 138 219 229 148 152 151 164 184 194 159 134 125 119 125 129 129 135 153 160 152 156 164 185 194 186 187 188 192 196 194 189 184 181 183 183
176 153 183 148 168 243 285 30 139 197 197 152 123 129 134 139 137 136 127 122 113 106 101 114 122 130 142 147 150 157 180 191 175 165 172 184 185 193 185 177 180 180 178 178
189 192 186 181 205 232 267 132 155 138 121 120 120 118 120 123 136 135 127 124 120 121 120 117 121 113 116 157 160 174 194 176 163 163 173 176 178 181 173 175 182 183 182 183
308 1 108 97 292 293 62 76 69 84 97 90 107 118 120 133 137 129 126 125 124 119 115 110 114 117 113 166 155 167 173 165 159 170 179 179 176 180 172 167 177 178 186 188
289 357 65 99 296 29 29 60 79 72 74 73 75 97 127 132 131 135 136 139 139 134 127 122 130 148 173 149 121 131 136 134 155 168 177 174 172 171 172 172 189 194 206 200
287 186 156 217 236 174 252 324 79 85 85 90 94 87 96 125 133 131 136 144 141 142 134 132 140 156 178 156 144 148 145 143 144 162 179 183 182 181 176 168 145 356 227 221